Location: Newark
(43.6583°N, 1.6617°E)
Time: 09:44:14
(UTC+00:00)

Vanguard 3 - All Passes

Search period start: 21 August 2019 00:00
Search period end: 31 August 2019 00:00
Orbit: 508 x 3263 km, 33.3° (Epoch: 20 August)

Date Brightness Start Highest point End Pass type
(mag) Time Alt. Az. Time Alt. Az. Time Alt. Az.
21 Aug - 15:36:51 10° S 15:40:10 13° SSE 15:42:55 10° SE daylight
21 Aug - 17:47:09 10° SW 17:51:45 21° S 17:55:09 10° SE daylight
21 Aug - 19:59:31 10° SW 20:02:36 19° S 20:05:18 10° SE visible
22 Aug - 16:32:36 10° SSW 16:38:04 20° S 16:42:00 10° ESE daylight
22 Aug - 18:44:58 10° WSW 18:49:17 23° S 18:52:34 10° SE daylight
22 Aug - 20:58:11 10° SW 20:59:53 12° SSW 21:01:32 10° S visible
23 Aug - 15:18:10 10° SSW 15:24:05 18° SSE 15:28:27 10° ESE daylight
23 Aug - 17:30:07 10° SW 17:35:48 26° S 17:39:44 10° ESE daylight
23 Aug - 19:43:15 10° WSW 19:46:40 19° SSW 19:49:29 10° SSE visible
24 Aug - 14:04:29 10° S 14:09:47 14° SSE 14:14:01 10° SE daylight
24 Aug - 16:15:01 10° SW 16:22:03 26° S 16:26:44 10° ESE daylight
24 Aug - 18:28:19 10° WSW 18:33:21 26° S 18:36:58 10° SE daylight
24 Aug - 20:42:33 10° SW 20:43:52 11° SSW 20:45:07 10° S visible
25 Aug - 12:54:25 10° SSE 12:55:11 10° SSE 12:55:56 10° SSE daylight
25 Aug - 14:59:56 10° SSW 15:07:58 23° SSE 15:13:23 10° ESE daylight
25 Aug - 17:13:01 10° WSW 17:19:48 30° S 17:24:15 10° ESE daylight
25 Aug - 19:26:54 10° WSW 19:30:41 20° SSW 19:33:41 10° SSE visible
26 Aug - 13:45:20 10° SSW 13:53:30 19° SSE 13:59:26 10° ESE daylight
26 Aug - 15:57:27 10° SW 16:05:57 31° S 16:11:19 10° ESE daylight
26 Aug - 18:11:33 10° WSW 18:17:22 28° S 18:21:21 10° SE daylight
26 Aug - 20:26:58 10° SW 20:27:47 10° SSW 20:28:35 10° SSW visible
27 Aug - 12:32:00 10° S 12:38:44 15° SSE 12:44:10 10° ESE daylight
27 Aug - 14:41:50 10° SW 14:51:44 29° SSE 14:58:05 10° ESE daylight
27 Aug - 16:55:51 10° WSW 17:03:47 34° S 17:08:43 10° ESE daylight
27 Aug - 19:10:26 10° WSW 19:14:39 20° SSW 19:17:53 10° SSE visible
28 Aug - 13:26:36 10° SSW 13:37:07 25° SSE 13:44:19 10° ESE daylight
28 Aug - 15:39:51 10° SW 15:49:48 36° S 15:55:49 10° ESE daylight
28 Aug - 17:54:41 10° WSW 18:01:20 30° SSW 18:05:42 10° SE daylight
29 Aug - 12:12:21 10° S 12:22:10 19° SSE 12:29:36 10° ESE daylight
29 Aug - 14:23:47 10° SW 14:35:25 34° SSE 14:42:36 10° ESE daylight
29 Aug - 16:38:36 10° WSW 16:47:40 38° S 16:53:07 10° ESE daylight
29 Aug - 18:53:51 10° WSW 18:58:34 20° SSW 19:02:03 10° SSE daylight
30 Aug - 11:00:21 10° SSE 11:07:00 13° SE 11:12:45 10° ESE daylight
30 Aug - 13:08:05 10° SSW 13:20:37 30° SSE 13:28:55 10° ESE daylight
30 Aug - 15:22:13 10° WSW 15:33:33 41° S 15:40:14 10° ESE daylight
30 Aug - 17:37:41 10° WSW 17:45:14 32° SSW 17:50:01 10° SE daylight
